User: anonymous   Login
Location: Aressy
(43.2833°N, 0.3167°W)
Time: 06:16:35
(UTC+00:00)
Language:

SL-08 RB Rocket - Orbit

View from above orbital plane
View from above orbital plane
View from above satellite
View from above satellite

Ground track
Ground track

The orbit data is extracted from the following two-line orbital elements,

1 26387U 00033D   21108.58519527  .00000130  00000-0  30285-4 0  9992
2 26387  97.7803 142.0599 0026289 186.1165 288.4795 14.68692260371230
Epoch (UTC): 18 April 2021 14:02:40
Eccentricity: 0.0026289
inclination: 97.7803°
perigee height: 647 km
apogee height: 684 km
right ascension of ascending node: 142.0599°
argument of perigee: 186.1165°
revolutions per day: 14.68692260
mean anomaly at epoch: 288.4795°
orbit number at epoch: 37123

The dashed part of the orbit path shows where the satellite is in the earth's shadow,  

DLR